Location: Beetenbrück
(52.8113°N, 9.5946°E)
Time: 21:57:18
(UTC+00:00)

PAYLOAD B - Pass Details

Date: 14 April 2026
Orbit: 848 x 870 km, 99.0° (Epoch: 12 May)

Event Time Altitude Azimuth Distance (km) Brightness Sun altitude
Exits shadow 19:04:46 - 156° (SSE) 3,393 6.9 -7.2°
Reaches altitude 10° 19:07:06 10° 155° (SSE) 2,472 6.2 -7.5°
Maximum altitude 19:12:34 77° 70° (ENE) 878 4.2 -8.3°
Drops below altitude 10° 19:18:04 10° 346° (NNW) 2,486 7.3 -9.0°
Sets 19:20:27 0° 345° (NNW) 3,427 8.1 -9.3°
